Location: Napier
(39.4830°S, 176.9170°E)
Time: 14:45:00
(UTC+13:00)

Tiangong 2 - Pass Details

Date: 24 January 2019
Orbit: 381 x 390 km, 42.8° (Epoch: 18 February)

Event Time Altitude Azimuth Distance (km) Brightness Sun altitude
Rises 21:04:55 0° 257° (WSW) 2,287 6.7 -5.7°
Reaches altitude 10° 21:07:14 10° 271° (W) 1,424 5.0 -6.1°
Maximum altitude 21:09:54 24° 328° (NNW) 851 2.8 -6.6°
Drops below altitude 10° 21:12:33 10° 24° (NNE) 1,409 3.4 -7.0°
Enters shadow 21:13:12 - 30° (NNE) 1,641 3.7 -7.1°
